When you browse on this site, cookies collect data to enhance your experience and personalize the content and advertising you see.
Visit our Privacy Policy to learn more. By continuing to use the site, you agree to this use of cookies and data.
  • In Czech Republic
  • List of Countries
  • For 7 days
  • Water Temperature
  • Weather Map
  • Weather Widgets
  • user-avatar
    Login

    Hourly Weather Lebrija

    Today, 26 May, Tuesday

    Time Temperature Precipitation Wind Pressure Humidity
    00:00 +22°C° 0.1 mm 1 mps 672 mmHg 85%
    01:00 +22°C° 0 mm 1 mps 671 mmHg 84%
    02:00 +22°C° 0.1 mm 1 mps 671 mmHg 84%
    03:00 +21°C° 0.1 mm 1 mps 671 mmHg 83%
    04:00 +21°C° 0.1 mm 1 mps 670 mmHg 83%
    05:00 +22°C° 0 mm 1 mps 671 mmHg 82%
    06:00 +23°C° 0 mm 1 mps 671 mmHg 81%
    07:00 +24°C° 0 mm 1 mps 672 mmHg 77%
    08:00 +25°C° 0 mm 1 mps 672 mmHg 73%
    09:00 +27°C° 0 mm 1 mps 673 mmHg 68%
    10:00 +29°C° 0 mm 1 mps 673 mmHg 64%
    11:00 +29°C° 0.4 mm 1 mps 672 mmHg 65%
    12:00 +29°C° 0.4 mm 2 mps 672 mmHg 67%
    13:00 +29°C° 0.4 mm 2 mps 671 mmHg 68%
    14:00 +29°C° 1.2 mm 2 mps 671 mmHg 72%
    15:00 +28°C° 1.2 mm 1 mps 670 mmHg 76%
    16:00 +28°C° 1.2 mm 1 mps 669 mmHg 80%
    17:00 +26°C° 2.5 mm 1 mps 670 mmHg 85%
    18:00 +25°C° 2.5 mm 1 mps 670 mmHg 89%
    19:00 +23°C° 2.5 mm 1 mps 670 mmHg 94%
    20:00 +23°C° 0.9 mm 1 mps 671 mmHg 93%
    21:00 +22°C° 0.9 mm 1 mps 671 mmHg 92%
    22:00 +22°C° 0.9 mm 1 mps 672 mmHg 90%
    23:00 +22°C° 0.8 mm 1 mps 672 mmHg 90%

    Tomorrow, 27 May, Wednesday

    Time Temperature Precipitation Wind Pressure Humidity
    00:00 +22°C° 0.8 mm 1 mps 671 mmHg 90%
    01:00 +22°C° 0.8 mm 1 mps 671 mmHg 89%
    02:00 +21°C° 1.2 mm 1 mps 671 mmHg 90%
    03:00 +21°C° 1.2 mm 1 mps 671 mmHg 91%
    04:00 +19°C° 1.2 mm 0 mps 671 mmHg 93%
    05:00 +21°C° 1.2 mm 1 mps 671 mmHg 92%
    06:00 +22°C° 1.2 mm 1 mps 671 mmHg 91%
    07:00 +22°C° 1.2 mm 1 mps 671 mmHg 91%
    08:00 +23°C° 0.1 mm 1 mps 672 mmHg 86%
    09:00 +25°C° 0.1 mm 1 mps 672 mmHg 81%
    10:00 +26°C° 0.1 mm 1 mps 673 mmHg 76%
    11:00 +27°C° 0.5 mm 1 mps 672 mmHg 74%
    12:00 +28°C° 0.5 mm 1 mps 672 mmHg 71%
    13:00 +29°C° 0.5 mm 2 mps 671 mmHg 69%
    14:00 +28°C° 0.9 mm 1 mps 671 mmHg 72%
    15:00 +28°C° 0.9 mm 1 mps 670 mmHg 74%
    16:00 +27°C° 0.9 mm 1 mps 670 mmHg 77%
    17:00 +26°C° 1.4 mm 1 mps 670 mmHg 82%
    18:00 +24°C° 1.4 mm 1 mps 670 mmHg 87%
    19:00 +23°C° 1.4 mm 1 mps 670 mmHg 92%
    20:00 +23°C° 0.4 mm 1 mps 671 mmHg 91%
    21:00 +22°C° 0.4 mm 1 mps 671 mmHg 91%
    22:00 +22°C° 0.4 mm 1 mps 672 mmHg 91%
    23:00 +22°C° 1.4 mm 1 mps 671 mmHg 92%

    Day after tomorrow, 28 May, Thursday

    Time Temperature Precipitation Wind Pressure Humidity
    00:00 +20°C° 1.4 mm 0 mps 671 mmHg 94%
    01:00 +19°C° 1.4 mm 0 mps 671 mmHg 95%
    02:00 +19°C° 2 mm 0 mps 671 mmHg 96%
    03:00 +19°C° 2 mm 0 mps 671 mmHg 97%
    04:00 +19°C° 2 mm 0 mps 671 mmHg 97%
    05:00 +19°C° 0.7 mm 0 mps 671 mmHg 97%
    06:00 +19°C° 0.7 mm 0 mps 671 mmHg 97%
    07:00 +19°C° 0.7 mm 0 mps 672 mmHg 97%
    08:00 +20°C° 0.3 mm 0 mps 672 mmHg 95%
    09:00 +23°C° 0.3 mm 1 mps 672 mmHg 93%
    10:00 +24°C° 0.3 mm 1 mps 672 mmHg 91%
    11:00 +25°C° 0.5 mm 1 mps 672 mmHg 87%
    12:00 +25°C° 0.5 mm 1 mps 671 mmHg 82%
    13:00 +26°C° 0.5 mm 1 mps 671 mmHg 78%
    14:00 +26°C° 0.5 mm 1 mps 670 mmHg 81%
    15:00 +25°C° 0.5 mm 1 mps 670 mmHg 84%
    16:00 +25°C° 0.5 mm 1 mps 670 mmHg 86%
    17:00 +22°C° 1 mm 0 mps 670 mmHg 89%
    18:00 +21°C° 1 mm 0 mps 670 mmHg 91%
    19:00 +20°C° 1 mm 0 mps 670 mmHg 94%
    20:00 +20°C° 0.3 mm 0 mps 671 mmHg 93%
    21:00 +20°C° 0.3 mm 0 mps 671 mmHg 92%
    22:00 +20°C° 0.3 mm 0 mps 672 mmHg 91%
    23:00 +19°C° 0.3 mm 0 mps 671 mmHg 91%

    29 May, Friday

    Time Temperature Precipitation Wind Pressure Humidity
    00:00 +19°C° 0.3 mm 0 mps 671 mmHg 91%
    01:00 +19°C° 0.3 mm 0 mps 671 mmHg 91%
    02:00 +18°C° 0.7 mm 0 mps 671 mmHg 92%
    03:00 +18°C° 0.7 mm 0 mps 671 mmHg 92%
    04:00 +20°C° 0.7 mm 1 mps 670 mmHg 92%
    05:00 +19°C° 0.6 mm 0 mps 671 mmHg 91%
    06:00 +19°C° 0.6 mm 0 mps 671 mmHg 91%
    07:00 +20°C° 0.6 mm 0 mps 672 mmHg 90%
    08:00 +21°C° 0.3 mm 0 mps 672 mmHg 88%
    09:00 +24°C° 0.3 mm 1 mps 673 mmHg 85%
    10:00 +25°C° 0.3 mm 1 mps 673 mmHg 82%
    11:00 +25°C° 1.4 mm 1 mps 672 mmHg 84%
    12:00 +25°C° 1.4 mm 1 mps 672 mmHg 86%
    13:00 +25°C° 1.4 mm 1 mps 671 mmHg 88%
    14:00 +25°C° 1.1 mm 1 mps 671 mmHg 90%
    15:00 +24°C° 1.1 mm 1 mps 670 mmHg 91%
    16:00 +24°C° 1.1 mm 1 mps 670 mmHg 92%
    17:00 +23°C° 0.8 mm 1 mps 670 mmHg 94%
    18:00 +21°C° 0.8 mm 0 mps 671 mmHg 95%
    19:00 +20°C° 0.8 mm 0 mps 671 mmHg 97%
    20:00 +20°C° 1.4 mm 0 mps 671 mmHg 96%
    21:00 +20°C° 1.4 mm 0 mps 672 mmHg 96%
    22:00 +20°C° 1.4 mm 0 mps 672 mmHg 95%
    23:00 +19°C° 0.9 mm 0 mps 672 mmHg 95%

    30 May, Saturday

    Time Temperature Precipitation Wind Pressure Humidity
    00:00 +19°C° 0.9 mm 0 mps 672 mmHg 95%
    01:00 +19°C° 0.9 mm 0 mps 671 mmHg 95%
    02:00 +19°C° 0.4 mm 0 mps 671 mmHg 95%
    03:00 +19°C° 0.4 mm 0 mps 671 mmHg 95%
    04:00 +19°C° 0.4 mm 0 mps 671 mmHg 95%
    05:00 +19°C° 0 mm 0 mps 672 mmHg 94%
    06:00 +19°C° 0 mm 0 mps 672 mmHg 93%
    07:00 +20°C° 0 mm 0 mps 672 mmHg 93%
    08:00 +21°C° 0.5 mm 0 mps 673 mmHg 90%
    09:00 +24°C° 0.5 mm 1 mps 673 mmHg 88%
    10:00 +25°C° 0.5 mm 1 mps 673 mmHg 86%
    11:00 +25°C° 0.9 mm 1 mps 672 mmHg 85%
    12:00 +26°C° 0.9 mm 1 mps 672 mmHg 84%
    13:00 +26°C° 0.9 mm 1 mps 671 mmHg 83%
    14:00 +26°C° 1.5 mm 1 mps 671 mmHg 84%
    15:00 +25°C° 1.5 mm 1 mps 670 mmHg 86%
    16:00 +23°C° 1.5 mm 0 mps 670 mmHg 88%
    17:00 +22°C° 2.6 mm 0 mps 670 mmHg 91%
    18:00 +21°C° 2.6 mm 0 mps 671 mmHg 94%
    19:00 +20°C° 2.6 mm 0 mps 671 mmHg 97%
    20:00 +20°C° 2.1 mm 0 mps 672 mmHg 97%
    21:00 +19°C° 2.1 mm 0 mps 672 mmHg 97%
    22:00 +19°C° 2.1 mm 0 mps 673 mmHg 97%
    23:00 +19°C° 1.9 mm 0 mps 673 mmHg 98%

    31 May, Sunday

    Time Temperature Precipitation Wind Pressure Humidity
    00:00 +19°C° 1.9 mm 0 mps 672 mmHg 98%
    01:00 +19°C° 1.9 mm 0 mps 672 mmHg 98%
    02:00 +21°C° 2.1 mm 1 mps 672 mmHg 98%
    03:00 +21°C° 2.1 mm 1 mps 672 mmHg 98%
    04:00 +21°C° 2.1 mm 1 mps 672 mmHg 98%
    05:00 +21°C° 3.1 mm 1 mps 672 mmHg 98%
    06:00 +19°C° 3.1 mm 0 mps 672 mmHg 98%
    07:00 +19°C° 3.1 mm 0 mps 673 mmHg 98%
    08:00 +19°C° 0.6 mm 0 mps 673 mmHg 97%
    09:00 +19°C° 0.6 mm 0 mps 673 mmHg 96%
    10:00 +20°C° 0.6 mm 0 mps 673 mmHg 95%
    11:00 +23°C° 0.4 mm 1 mps 673 mmHg 91%
    12:00 +24°C° 0.4 mm 1 mps 673 mmHg 88%
    13:00 +25°C° 0.4 mm 1 mps 673 mmHg 84%
    14:00 +24°C° 0.9 mm 1 mps 672 mmHg 86%
    15:00 +24°C° 0.9 mm 1 mps 671 mmHg 88%
    16:00 +23°C° 0.9 mm 1 mps 671 mmHg 90%
    17:00 +23°C° 0.6 mm 1 mps 671 mmHg 92%
    18:00 +22°C° 0.6 mm 1 mps 671 mmHg 93%
    19:00 +19°C° 0.6 mm 0 mps 672 mmHg 95%
    20:00 +21°C° 0.6 mm 1 mps 672 mmHg 95%
    21:00 +21°C° 0.6 mm 1 mps 672 mmHg 95%
    22:00 +21°C° 0.6 mm 1 mps 673 mmHg 95%
    23:00 +19°C° 0.7 mm 0 mps 673 mmHg 95%
    Show more